sat.trackr.live / text

‹ back to catalog

STARLINK-4050

NORAD 53274 · 2022-086AJ

PAYLOAD ACTIVE UNKNOWN

§ Identity

Operator
Country
US
Launch date
2022-07-24
Launch site
AFETR
Launch vehicle
Mass (kg)
RCS (m²)

Purposes: comms

External: N2YO · Heavens-Above · Gunter

§ Orbital elements

Epoch: 2026-05-25T03:32:59.163072Z

Period
95.44 min
Inclination
53.2142°
Eccentricity
0.0001176
Mean motion
15.08842225 rev/d
Perigee alt
538.9 km
Apogee alt
540.6 km
Semi-major
6,917.9 km
B*
9.1887e-6
RAAN
200.8868°
Arg perigee
83.3427°
Mean anomaly
276.7699°
Rev number
21,274

§ Raw data

STARLINK-40501 53274U 22086AJ  26145.14790698 -.00000142  00000+0  91887-5 0  99962 53274  53.2142 200.8868 0001176  83.3427 276.7699 15.08842225212743

JSON: /api/v1/satellites/53274 · /tle

For live sub-satellite position, see the globe view (requires WebGL).

§ Visibility from observer

Set your observer location to see the next 7 days of passes ≥ 10°. The values pass through the URL so the page stays shareable.

No JS? Fill the form by hand. The geolocation button needs JavaScript.